Location: Unspecified
(0.0000°N, 0.0000°E)
Time: 19:17:59
(UTC+00:00)

STARLINK-30232 - Visible Passes

Search period start: 10 November 2025 00:00
Search period end: 20 November 2025 00:00
Orbit: 452 x 489 km, 43.0° (Epoch: 08 November)

Date Brightness Start Highest point End Pass type
(mag) Time Alt. Az. Time Alt. Az. Time Alt. Az.
10 Nov 5.9 04:18:01 10° S 04:20:47 20° SE 04:23:34 10° E visible
11 Nov 6.0 03:46:53 14° SSE 03:48:28 17° SE 03:50:57 10° E visible
12 Nov 4.1 04:52:14 17° W 04:54:17 30° NW 04:57:31 10° NNE visible
13 Nov 4.8 04:22:56 24° N 04:22:56 24° N 04:24:43 10° NNE visible
